Miscellaneous Local Product
Issued by NWS Hastings, NE

Home | Current Version | Previous Version | Graphics & Text | Print | Product List | Glossary On
Versions: 1 2 3 4 5 6 7 8 9 10 11 12 13 14 15 16 17 18 19 20 21 22 23 24 25 26 27 28 29 30 31 32 33 34 35 36 37 38 39 40 41 42 43 44 45 46 47 48 49 50
000
AXUS43 KGID 282202
MISGRI

GID CWA HOURLY WEATHER ROUNDUP
NATIONAL WEATHER SERVICE HASTINGS NE
500 PM CDT SUN SEP 28 2014

NOTE: "FAIR" INDICATES FEW OR NO CLOUDS BELOW 12,000 FEET WITH NO
SIGNIFICANT WEATHER AND/OR OBSTRUCTIONS TO VISIBILITY.

...SOUTH CENTRAL NEBRASKA...

CITY           SKY/WX    TMP DP  RH WIND       PRES   REMARKS
GRAND ISLAND   MOSUNNY   81  60  48 S10       30.04F
HASTINGS       MOSUNNY   81  56  42 S9        30.04F
KEARNEY        MOSUNNY   81  57  44 S13G21    30.04F
ORD            SUNNY     82  59  45 S9        30.02F
YORK           MOSUNNY   81  59  47 S10       30.05S
AURORA         SUNNY     82  56  41 S7        30.04F
LEXINGTON      MOSUNNY   83  54  36 S16       30.03S
HOLDREGE       SUNNY     82  53  37 S13       30.04S
HEBRON         PTSUNNY   82  52  35 S9        30.05S

...NEBRASKA PANHANDLE...

CITY           SKY/WX    TMP DP  RH WIND       PRES   REMARKS
CHADRON        CLOUDY    57  50  77 NE13      30.12F
ALLIANCE       PTSUNNY   71  53  52 N22G30    30.03F
SCOTTSBLUFF    PTSUNNY   72  53  51 NE18G31   30.01F
SIDNEY         PTSUNNY   77  54  44 SE12      30.02F

...WESTERN AND NORTH CENTRAL NEBRASKA...

CITY           SKY/WX    TMP DP  RH WIND       PRES   REMARKS
VALENTINE      MOSUNNY   78  56  46 N13       30.04S
AINSWORTH      PTSUNNY   80  55  43 E7        30.03S
ONEILL         SUNNY     82  61  48 SE10      30.02F
BROKEN BOW     SUNNY     82  57  42 S14       30.03F
IMPERIAL       MOSUNNY   84  50  30 SE24G31   29.98F
NORTH PLATTE   PTSUNNY   82  54  37 SE9       30.00F
MCCOOK         MOSUNNY   84  52  33 SE17      30.00F

...EASTERN NEBRASKA...

CITY           SKY/WX    TMP DP  RH WIND       PRES   REMARKS
NORFOLK        SUNNY     81  61  50 SE10      30.03F
SO SIOUX CITY  MOSUNNY   83  57  41 S9        30.04S
COLUMBUS       MOSUNNY   82  57  42 S6        30.04F
ALBION         MOSUNNY   82  58  44 S10       30.03F
OMAHA EPPLEY   MOSUNNY   82  58  43 S10       30.05F
OFFUTT AFB     SUNNY     82  62  51 SE8       30.05F
MILLARD        SUNNY     82  61  47 SE8       30.05S
LINCOLN        SUNNY     83  58  42 S10       30.05F
NEBRASKA CITY  SUNNY     78  53  40 SE7       30.07S
BEATRICE       PTSUNNY   82  59  44 S10       30.05F
FALLS CITY     SUNNY     83  56  39 SE6       30.06F

...NORTHERN KANSAS...

CITY           SKY/WX    TMP DP  RH WIND       PRES   REMARKS
GOODLAND       SUNNY     81  51  35 S24G30    30.00F
HILL CITY      MOSUNNY   85  52  32 S15G22    30.02F
NORTON         PTCLDY    82  46  28 SE15      30.01F
PHILLIPSBURG   SUNNY     84  52  32 SE14      30.02S
SMITH CENTER   PTSUNNY   82  54  36 S16       30.03F
BELOIT         MOSUNNY   84  54  34 SE10G16   30.03S
HAYS           PTSUNNY   81  55  41 S13G18    30.04S
RUSSELL        MOSUNNY   82  56  40 S14       30.03F
CONCORDIA      CLOUDY    81  59  47 S10       30.05F
SALINA         SUNNY     83  60  45 S9        30.05F
TOPEKA         MOSUNNY   84  54  35 SW5       30.06F



USA.gov is the U.S. government's official web portal to all federal, state and local government web resources and services.